Retour au catalogue

SL-16 DEB

ActifLEO
NORAD 22436·DEBRIS·🇷🇺 Russia

Lancé Dec 25, 1992 depuis Baikonur Cosmodrome

Loading…

Prochains Passages (prochaines 24 heures)

TLE

FraisSource: Space-Track

Époque: Sep 14, 2026, 03:23 UTC

1 22436U 92093ED  26257.14110986  .00004633  00000-0  53647-3 0  9996
2 22436  71.5041 307.0492 0037580 259.0449 132.0473 14.85520215778700

Suivez SL-16 DEB en temps réel avec AllMySat

Download on the App Store